Probability
0 0 0 0 0 0 0 0 0 0 0 0 0 0 0 0 0 0 0 0 0 0 0 0 0 0 0 0 0 0 0 0 0 0 0 1 2 3 3 3 3 2 1
0 0 0 0 0 0 0 0 0 0 0 0 0 0 0 0 0 0 0 0 0 0 0 0 0 0 0 0 0 0 0 0 0 0 1 2 3 3 3 2 2 1 0
0 0 0 0 0 0 0 0 0 0 0 0 0 0 0 0 0 0 0 0 0 0 0 0 0 0 0 0 0 0 0 0 0 0 1 2 2 2 1 1 1 0 0
0 0 0 0 0 0 0 0 0 0 0 0 0 0 0 0 0 0 0 0 0 0 0 0 0 1 0 0 0 0 0 0 0 0 0 1 1 1 0 0 0 0 0
0 0 0 0 0 0 0 0 0 0 0 0 0 0 0 0 0 0 0 0 0 0 0 0 0 0 0 0 0 0 0 0 0 0 0 0 1 2 1 0 1 1 1
0 0 0 0 0 0 0 0 0 0 0 0 0 0 0 0 0 0 0 0 0 0 0 0 0 0 0 0 0 0 0 0 0 0 0 1 2 3 2 2 2 2 2
0 0 0 0 0 0 0 0 0 0 0 0 0 0 0 0 0 0 0 0 0 0 0 0 0 0 0 0 0 0 0 0 0 0 0 1 2 3 3 3 4 3 3
0 0 0 0 0 0 0 0 0 0 0 0 0 0 0 0 0 0 0 0 0 0 0 0 0 0 0 0 0 0 0 0 0 0 0 0 2 3 4 4 4 4 3
0 0 0 0 0 0 0 0 0 0 0 0 0 0 0 0 0 0 0 0 0 0 0 0 0 0 0 0 0 0 0 0 0 0 0 0 1 2 3 4 4 3 3
0 0 0 0 0 0 0 0 0 0 0 0 0 0 0 0 0 0 0 0 0 0 0 0 0 0 0 0 0 0 0 0 0 0 0 0 0 1 1 2 2 2 2
0 0 0 0 0 0 0 0 0 0 0 0 0 0 0 0 0 0 0 0 0 0 0 0 0 0 0 0 0 0 0 0 0 0 0 0 0 0 0 1 1 1 1
0 0 0 0 0 0 0 0 0 0 0 0 0 0 0 0 0 0 0 0 0 0 0 0 0 0 0 0 0 0 0 0 0 0 0 0 0 0 0 0 0 1 1
0 0 0 0 0 0 0 0 0 0 0 0 0 0 0 0 0 0 0 0 0 0 0 0 0 0 0 0 0 0 0 0 0 0 0 0 0 0 0 0 0 1 2
0 0 0 0 0 0 0 0 0 0 0 0 0 0 0 0 0 0 0 0 0 0 0 0 0 0 0 0 0 0 0 0 0 0 0 0 0 0 0 0 0 1 1
0 0 0 0 0 0 0 0 0 0 0 0 0 0 0 0 0 0 0 0 0 0 0 0 0 0 0 0 0 0 0 0 0 0 0 0 0 0 0 0 0 0 0
0 0 0 0 0 0 0 0 0 0 0 0 0 0 0 0 0 0 0 0 0 0 0 0 0 0 0 0 0 0 0 0 0 0 0 0 0 0 0 0 0 0 0
0 0 0 0 0 0 0 0 0 0 0 0 0 0 0 0 0 0 0 0 0 0 0 0 0 0 0 0 0 0 0 0 0 0 0 0 0 0 0 0 0 0 0
0 0 0 0 0 0 0 0 0 0 0 0 0 0 0 0 0 0 0 0 0 0 0 0 0 0 0 0 0 0 0 0 0 0 0 0 0 0 0 0 0 0 0
0 0 0 0 0 0 0 0 0 0 0 0 0 0 0 0 0 0 0 0 0 0 0 0 0 0 0 0 0 0 0 0 0 0 0 0 0 0 0 0 0 0 0
0 0 0 0 0 0 0 0 0 0 0 0 0 0 0 0 0 0 0 0 0 0 0 0 0 0 0 0 0 0 0 0 0 0 0 0 0 0 0 0 0 0 0
0 0 0 0 0 0 0 0 0 0 0 0 0 0 0 0 0 0 0 0 0 0 0 0 0 0 0 0 0 0 0 0 0 0 0 0 0 0 0 0 0 0 0
0 0 0 0 0 0 0 0 0 0 0 0 0 0 0 0 0 0 0 0 0 0 0 0 0 0 0 0 0 0 0 0 0 0 0 0 0 0 0 0 0 0 0
0 0 0 0 0 0 0 0 0 0 0 0 0 0 0 0 0 0 0 0 0 0 0 0 0 0 0 0 0 0 0 0 0 0 0 0 0 0 0 0 0 0 0
0 0 0 0 0 0 0 0 0 0 0 0 0 0 0 0 0 0 0 0 0 0 0 0 0 0 0 0 0 0 0 0 0 0 0 0 0 0 0 0 0 0 0
0 0 0 0 0 0 0 0 0 0 0 0 0 0 0 0 0 0 0 0 0 0 0 0 0 0 0 0 0 0 0 0 0 0 0 0 0 0 0 0 0 0 0
0 0 0 0 0 0 0 0 0 0 0 0 0 0 0 0 0 0 0 0 0 0 0 0 0 0 0 0 0 0 0 0 0 0 0 0 0 0 0 0 0 0 0
Wind_Speed
2 1 1 1 2 2 2 3 3 3 4 4 4 5 4 4 4 3 3 8 9 9 9 9 9 9 9 9 9 8 8 8 7 7 6 6 6 6 5 4 4 4 3
2 2 2 2 2 2 3 3 4 4 4 3 4 4 4 4 4 4 3 5 9 9 10 10 10 9 9 9 9 9 9 9 8 8 7 6 6 6 5 4 4 4 4
3 3 3 3 2 3 4 4 4 4 4 4 5 4 4 4 3 4 4 3 4 8 11 10 10 10 10 9 9 9 9 9 9 9 8 7 7 6 5 4 4 4 4
4 4 3 2 3 3 3 4 3 4 4 4 3 3 3 3 4 3 4 4 3 4 7 11 11 11 10 10 9 9 9 10 9 10 10 9 8 7 6 5 5 5 5
4 4 3 3 3 3 3 3 3 3 3 3 3 3 3 3 3 4 4 4 4 4 4 7 10 11 11 11 10 10 10 10 10 10 10 10 9 8 7 6 7 6 6
4 4 3 3 4 4 3 3 4 3 3 2 4 4 4 3 3 4 3 3 3 4 4 4 4 6 11 11 11 11 11 11 11 11 11 10 10 10 8 8 8 8 8
4 4 3 3 3 3 3 3 3 4 2 2 3 3 3 4 4 3 3 3 4 3 3 4 3 3 4 9 10 10 11 11 11 11 11 11 11 11 10 10 10 9 9
4 4 4 3 3 3 3 3 3 2 1 1 2 2 2 3 3 4 3 3 3 3 3 3 3 3 3 3 6 10 10 10 10 10 10 10 10 11 11 10 10 9 9
3 3 4 3 3 3 2 2 2 3 1 1 1 3 3 1 1 3 3 3 3 3 2 2 3 3 3 3 3 7 10 10 10 10 10 10 11 11 11 10 10 9 8
3 3 3 3 3 2 2 1 2 2 2 1 1 1 2 3 2 1 3 3 3 3 2 2 2 2 3 2 4 7 9 10 9 9 9 10 10 10 10 10 9 8 8
2 2 3 3 3 2 2 2 2 2 2 2 1 1 2 2 2 3 0 2 3 3 2 2 1 1 2 2 2 4 7 8 9 9 9 10 10 10 10 10 10 9 9
1 1 3 3 3 2 2 1 2 2 2 2 2 1 2 1 1 2 2 1 1 2 2 2 1 1 1 1 2 4 5 6 7 8 8 9 9 10 9 9 9 9 8
0 0 2 2 2 2 2 2 2 2 2 2 2 1 1 1 1 2 2 1 0 2 2 2 2 1 1 1 1 3 3 4 5 6 7 7 8 8 8 8 8 8 8
2 2 2 2 2 2 2 2 2 1 2 2 2 2 1 1 1 2 3 3 1 2 2 3 2 2 1 1 2 2 2 3 3 4 5 5 6 6 7 7 7 7 7
2 3 3 2 2 2 2 3 2 2 2 2 2 2 1 1 1 1 2 3 4 1 1 3 2 2 2 1 2 1 1 2 2 2 3 4 4 5 5 5 6 6 6
2 3 3 2 2 2 2 2 2 1 2 1 1 2 2 1 1 1 1 1 2 3 1 2 2 2 2 1 2 1 2 3 3 2 2 3 3 4 4 4 5 5 5
3 4 3 3 3 2 2 2 2 2 2 2 2 2 1 1 1 1 1 2 2 2 2 1 2 2 1 2 2 2 2 1 2 3 2 2 3 3 3 4 4 4 4
3 4 4 3 3 2 2 2 2 2 2 1 1 2 1 1 2 1 1 2 1 1 2 1 2 2 2 2 2 2 2 2 2 3 3 4 4 4 3 4 4 4 4
3 3 4 4 3 2 3 2 2 2 2 2 2 2 1 2 1 1 1 1 1 1 2 2 1 1 2 2 2 3 3 3 2 3 3 4 4 4 4 4 4 4 4
3 3 3 3 3 3 3 2 3 2 2 1 1 2 2 2 2 1 1 1 1 2 2 1 1 1 2 2 2 2 3 3 3 3 4 4 4 5 5 5 5 5 5
4 3 3 2 2 2 2 3 3 3 3 2 1 1 1 2 2 2 2 2 2 2 1 1 1 1 2 2 2 2 2 3 3 2 2 3 3 3 3 5 5 5 5
3 3 3 3 2 1 3 5 5 3 3 2 1 0 1 2 2 2 3 3 4 3 2 1 0 0 2 1 1 1 1 2 3 3 2 3 2 2 3 2 4 5 6
3 3 3 3 2 2 4 6 6 4 3 2 2 1 1 2 2 1 2 4 2 2 3 4 2 2 2 2 1 1 1 1 2 3 1 2 2 2 3 4 6 6 7
3 3 2 2 2 1 4 6 6 4 2 2 1 2 1 0 1 2 2 2 2 2 1 1 2 2 1 1 1 1 2 1 2 2 1 1 2 3 3 3 6 7 8
3 3 2 3 2 1 3 5 6 3 2 1 1 1 2 1 1 3 3 2 2 2 3 3 3 3 4 4 3 2 2 2 2 3 1 1 2 3 3 2 4 7 8
3 4 3 2 2 1 2 4 6 3 3 1 1 1 2 2 3 4 3 3 2 1 2 3 4 5 4 5 5 2 1 0 1 2 2 1 2 2 3 3 3 4 4
Wind_Direction
109 100 88 76 71 72 80 73 69 71 69 64 69 76 71 65 58 47 45 58 57 57 59 62 65 64 62 59 56 53 52 50 44 42 43 46 41 40 43 47 52 57 62
110 101 93 83 72 74 79 81 80 75 68 67 65 69 71 69 63 57 48 49 55 53 53 61 62 61 62 60 53 49 48 45 44 42 41 45 46 42 39 44 52 53 54
105 102 90 81 76 81 82 79 70 67 69 65 59 58 63 63 67 60 55 44 41 48 51 58 62 58 59 57 54 51 48 45 44 43 43 46 48 42 39 52 63 63 60
96 95 91 85 88 88 86 87 78 74 66 63 60 52 50 53 57 58 56 48 39 37 44 55 59 57 55 54 50 48 46 46 48 48 47 47 45 40 46 60 71 70 70
91 95 95 92 93 84 80 91 76 85 80 70 69 59 44 44 47 56 52 49 45 41 37 49 54 54 54 52 50 47 47 48 53 55 52 46 42 40 52 69 75 73 75
87 94 95 89 89 84 73 81 84 72 79 81 77 61 41 33 40 44 43 43 44 48 46 42 38 39 47 47 45 46 48 51 55 56 54 49 44 45 58 71 76 73 71
87 94 98 92 90 93 98 101 95 81 70 79 76 52 26 29 37 31 30 37 36 39 50 45 40 34 31 38 37 43 45 49 53 53 52 49 46 49 60 71 73 70 67
82 102 108 109 104 98 88 91 101 97 69 81 107 94 39 9 10 19 20 34 29 27 42 47 42 43 34 26 29 37 37 41 48 49 51 51 49 52 59 65 67 67 64
78 93 108 111 108 108 115 111 118 122 120 10 99 134 133 177 325 348 8 15 16 25 21 30 44 41 42 35 23 30 36 36 43 46 48 51 52 52 55 59 61 61 62
77 88 100 113 115 112 118 122 111 115 125 83 12 51 138 153 142 9 341 350 7 21 10 27 30 31 34 32 34 39 40 36 40 45 48 51 51 52 53 54 55 55 55
61 84 98 109 112 108 111 97 90 86 104 121 109 75 71 68 99 129 286 330 349 346 346 351 356 3 14 21 23 40 43 38 38 43 46 47 48 50 50 49 50 50 49
32 66 99 106 113 112 114 118 111 100 95 94 92 93 118 121 140 131 149 240 308 311 328 341 349 339 340 351 19 45 45 39 37 40 42 43 43 42 43 44 43 42 43
104 136 114 115 114 123 123 117 106 99 100 98 99 90 95 129 150 138 130 153 297 311 333 332 320 332 341 343 346 22 33 38 36 37 40 40 38 35 34 32 33 33 32
185 165 135 131 129 124 111 102 94 98 99 102 92 91 83 59 108 135 146 140 89 353 345 315 318 322 320 316 324 346 357 25 30 32 35 35 34 30 28 25 24 23 20
168 147 139 135 127 117 110 105 94 91 98 98 94 91 83 45 69 89 119 139 140 129 306 301 310 311 311 297 317 325 314 341 357 11 20 22 19 18 18 18 16 13 8
153 140 143 140 128 111 107 106 101 96 94 76 89 88 70 42 64 68 93 103 126 143 180 271 270 290 319 335 342 322 308 326 318 322 351 2 3 3 1 358 0 359 358
153 148 154 146 141 134 123 113 115 113 104 78 67 87 67 60 60 46 64 76 87 119 141 285 302 314 339 335 338 331 317 307 305 314 311 317 327 339 347 346 343 343 340
154 152 151 147 154 151 136 130 135 130 135 135 124 96 56 74 61 43 65 71 81 115 136 165 319 327 319 312 326 335 333 329 300 315 308 300 308 317 324 329 327 327 326
141 141 143 151 162 158 145 149 146 143 143 152 147 140 149 109 82 57 77 78 71 80 99 123 311 319 324 343 356 348 344 336 325 330 322 312 307 313 319 322 322 320 319
136 140 145 152 158 150 144 143 134 128 127 127 139 153 162 155 167 161 120 115 99 80 73 81 29 340 330 333 12 351 340 336 330 345 349 348 337 336 335 334 330 329 328
144 144 134 124 131 141 149 145 141 138 134 120 98 119 139 143 163 162 144 156 129 109 92 83 33 1 342 350 336 316 319 317 313 339 335 340 342 338 336 333 334 336 335
145 139 143 140 132 147 139 142 141 137 135 135 130 57 75 64 62 90 114 133 142 145 159 152 183 229 274 272 292 322 331 352 321 328 345 322 351 329 321 324 331 333 332
154 144 156 153 157 172 147 142 142 138 131 139 145 122 83 58 58 60 57 64 73 105 150 159 167 219 233 243 246 326 298 267 260 298 349 316 332 321 314 340 346 345 341
153 154 165 168 157 172 152 148 140 126 117 131 151 154 140 54 81 119 96 66 33 11 53 148 186 226 235 238 207 221 239 283 298 319 31 313 319 312 318 323 347 355 353
151 152 149 149 151 189 148 147 138 119 108 109 105 103 128 119 80 118 112 99 41 3 31 61 75 52 40 43 57 55 23 26 334 317 346 337 309 310 309 312 339 352 349
152 143 126 132 147 165 142 144 142 127 119 104 62 44 70 92 91 106 120 116 93 353 24 36 37 27 27 29 37 57 78 50 325 308 323 346 320 341 325 316 328 336 341